Погода в Петрокрепости

Погода в Петрокрепости : погода сейчас, прогноз погоды и архив. Всё, что Вы хотите узнать о погоде в Петрокрепости!

Хотите узнать прогноз погоды в Петрокрепости? Тогда Вам сюда: Погода в Петрокрепости

Поиск расширенной информации на нашем сайте:

Полезная информация: Вывод из запоя на дому 5000 руб - Наркологическая клиника.

Другие новости

Новости СМИ2

Главная страница сайта

Новости сайта

03.07.2017

Напоминаем, что на нашем специализированном сайте Метеоцентр.Азия вы можете получить высокодетализированные автоматические прогнозы погоды по пунктам России, СНГ и мира в авиационном формате (включающие направление и скорость ветра, видимость, явления погоды, количество и форму облачности, нижнюю и верхнюю границу облачности).

Рекомендуем: автошкола в марьино найти описание в каталоге

Погода в Петрокрепости - сегодня

Время (UTC), дата Ветер
(°,м/с) 
Видим.   Явления Облачность Т
(°С)
Тd
(°С)
f(%) Тe
(°С)
Pmin
(гПа)
dP
(гПа)
Po
(мм)
O2
(г/м3)
Тmin Tmax R s Состояние
почвы
00 18.08.17 160 (Ю) 20000 м    10/0 средняя 
[Ac und]
+17.6 +16.3 92 +30  1018.6  -0.5  763  285           
03 18.08.17 160 (Ю) 20000 м    8/0 средняя 
[Ac trans]
+17 +16.4 96 +29  1018  -0.6  762  285  +16.8         
06 18.08.17 190 (Ю) 20000 м    9/0 средняя 
[Ac trans]
+20.1 +17.6 86 +33  1017.8  -0.2  762  282  +16.8        влажная 
09 18.08.17 200 (Ю) 20000 м    9/5 600 м средняя 
[Cu med, cong|Ac trans]
+21.5 +15.6 69 +31  1017.6  -0.2  762  281           
12 18.08.17 200 (Ю) 20000 м    9/0 средняя 
[Ac trans]
+23.4 +15.6 62 +33  1016.9  -0.7  761  279           
15 18.08.17 220 (ЮЗ) 20000 м    10/3 1000 м средняя, верхняя 
[Cu med, cong|Ac trans|Ci]
+23 +16.1 65 +33  1016.5  -0.4  761  279           
18 18.08.17 тихо ()   20000 м    10/0 верхняя 
[Ci]
+17.7 +16 90 +28  1016.4  -0.3  761  284    +24.2       
21 18.08.17 тихо ()   20000 м    10/0 средняя 
[Ac und]
+17.7 +16 90 +28  1015.8  -0.6  760  284           
00 19.08.17 тихо ()   20000 м    10/0 средняя 
[Ac und]
+14.5 +14.1 97 +21  1016  0.3  761  288           
03 19.08.17 тихо ()   20000 м    4/0 средняя 
[Ac trans]
+14.8 +14.6 99 +22  1015.4  -0.6  760  287  +14.4         
06 19.08.17 180 (Ю) 20000 м    9/0 средняя 
[Ac trans]
+17.9 +16.7 93 +30  1015.7  0.3  760  284  +14.4        влажная 
09 19.08.17 160 (Ю) 20000 м    10/0 средняя, верхняя 
[Ac trans|Ci]
+24.6 +17.9 66 +38  1014.6  -1  760  277           
12 19.08.17 160 (Ю) 20000 м    10/0 средняя, верхняя 
[Ac trans|Ci]
+26.8 +17.5 57 +40  1013.5  -1.1  759  275           
15 19.08.17 160 (Ю) 20000 м    3/0 средняя 
[Ac trans]
+27.1 +19.7 64 +45  1012  -1.6  758  273           
18 19.08.17 150 (ЮВ) 20000 м    10/0 средняя, верхняя 
[Ac trans|Ci]
+21.8 +19.3 86 +39  1011.9  -0.1  758  278    +27.7       
21 19.08.17 290 (З) 10 км  ливневой дождь  9/8 500 м кучево-дожд., средняя 
[Cb cap|Ac trans]
+19 +17.3 90 +34  1014.4  2.4  759  282           
00 20.08.17 210 (ЮЗ) 20000 м  {ливн. осадки}  8/0 средняя 
[Ac trans]
+17.2 +16.9 98 +31  1012.9  -1.3  758  284           
03 20.08.17 250 (З) 20000 м    10/0 средняя 
[Ac und]
+18.1 +17.3 95 +33  1014.7  1.7  760  283  +17.2       
06 20.08.17 200 (Ю) 20000 м    10/0 средняя 
[Ac und]
+18.2 +16.5 90 +31  1016  1.3  761  284  +17.2      влажная 
09 20.08.17 200 (Ю) 20000 м    9/3 600 м средняя 
[Cu hum|Ac trans]
+19.7 +16.7 83 +32  1017.1  1.1  761  283           
12 20.08.17 200 (Ю) 20000 м    9/3 1000 м средняя 
[Cu hum|Ac trans]
+21.1 +15.1 69 +30  1017.5  0.3  762  282           
15 20.08.17 190 (Ю) 20000 м  в посл. час ливневой дождь  10/0 средняя 
[Ac und]
+19.2 +14.9 76 +29  1017.5  0.1  762  284      0.0     
18 20.08.17 180 (Ю) 20000 м  {ливн. осадки}  10/0 средняя 
[Ac und]
+17.4 +15.2 87 +28  1017.4  762  285    +21.2  0.0     
21 20.08.17 тихо ()   20000 м    10/10 480 м 
[Sc]
+16.4 +15.3 93 +25  1016.3  -1.1  761  286           
00 21.08.17 тихо ()   2000 м  ливневой дождь, в посл. час гроза  10/10 400 м кучево-дожд. 
[Cb cap]
+12.7 +12.4 98 +17  1016.2  0.1  761  290           
Время (UTC), дата Ветер
(°,м/с) 
Видим.   Явления Облачность Т
(°С)
Тd
(°С)
f(%) Тe
(°С)
Pmin
(гПа)
dP
(гПа)
Po
(мм)
O2
(г/м3)
Тmin Tmax R s Состояние
почвы

Для получения пояснительной информации подведите курсор к названию столбца.

ПОГОДА в Петрокрепости - архив

Всё, что Вы хотите узнать о погоде в Петрокрепости - удобно и подробно!

Выберите нужную дату (начиная с 1 января 2015* года) и нажмите кнопку "Найти".
Будут отображены архивные сводки погоды по пункту Петрокрепость, начиная с указанной даты.


Отображать данные в формате CSV (для использования в таблицах Excel)


Внимание! Наш архив погоды предназначен исключительно для личного некоммерческого использования в познавательных целях. Если Вам необходимы официальные справки о состоянии погоды (для производственных, юридических, коммерческих и т.п. целей), обращайтесь в органы Росгидромета.

*Примечание: данная дата относится к архиву по метеостанциям СССР (Россия, СНГ, Балтия).
Архив по метеостанциям Зарубежной Европы и Азии (кроме Китая) хранится 10 дней, по другим регионам земного шара (Китай, Африка, Америка, Австралия, Океания) - 1 день.

Петрокрепость - район местоположения метеостанции


Название, широта, долгота, высота метеостанции:
Петрокрепость 59.9°ш. 31°д. 17 м над ур. моря [Российская Федерация]

Дополнительная информация

В oтличие oт бoльшинства пoгoдных сайтoв мы публикуем пoдрoбную метеoинфoрмацию в детальнoм прoфессиoнальнoм фoрмате.

Характеристики температуры и влажнoсти вoздуха измеряются на высoте 2 м в тени вдали oт зданий и деревьев.
Скoрoсть ветра измеряется на высoте 10 м (на урoвне рoста челoвека скoрoсть ветра ниже в 1.5-2 раза). Если метеoстанция нахoдится в гoрoде или в лесу, тo скoрoсть ветра занижена на 2-4 м/с пo сравнению с oткрытым местoм. Скoрoсть ветра над акватoриями крупных рек и oзёр, а также на вершинах хoлмoв на 2-5 м/с выше, чем в oбычных услoвиях.
Атмoсфернoе давление в разных тoчках местнoсти мoжет значительнo oтличаться oт давления на метеoстанции, в зависимoсти oт услoвий рельефа (при пoдъёме на 10 м давление пoнижается примернo на 1 мм рт.ст.).